TimeCST,TemperatureF,Dew PointF,Humidity,Sea Level PressureIn,VisibilityMPH,Wind Direction,Wind SpeedMPH,Gust SpeedMPH,PrecipitationIn,Events,Conditions,WindDirDegrees,DateUTC
12:15 AM,42.8,33.8,70,29.54,10.0,SSE,13.8,-,N/A,,Partly Cloudy,160,2012-01-01 06:15:00
12:35 AM,42.8,33.8,70,29.52,10.0,SSE,15.0,20.7,N/A,,Clear,160,2012-01-01 06:35:00
12:55 AM,42.8,33.8,70,29.51,10.0,South,12.7,-,N/A,,Clear,180,2012-01-01 06:55:00
1:15 AM,41.0,33.8,76,29.51,10.0,South,12.7,-,N/A,,Clear,180,2012-01-01 07:15:00
1:35 AM,39.2,33.8,81,29.52,10.0,SSW,9.2,-,N/A,,Mostly Cloudy,200,2012-01-01 07:35:00
2:15 AM,41.0,33.8,76,29.53,10.0,WSW,13.8,-,N/A,,Overcast,250,2012-01-01 08:15:00
2:35 AM,39.2,33.8,81,29.54,10.0,West,12.7,-,N/A,,Overcast,270,2012-01-01 08:35:00
2:55 AM,41.0,33.8,76,29.56,10.0,West,20.7,25.3,N/A,,Overcast,260,2012-01-01 08:55:00
3:15 AM,41.0,33.8,76,29.59,10.0,West,19.6,26.5,N/A,,Overcast,270,2012-01-01 09:15:00
3:35 AM,39.2,35.6,87,29.60,10.0,West,18.4,-,0.01,,Overcast,280,2012-01-01 09:35:00
3:55 AM,41.0,35.6,81,29.62,10.0,WNW,18.4,-,0.02,,Overcast,300,2012-01-01 09:55:00
4:15 AM,41.0,35.6,81,29.64,9.0,NW,21.9,28.8,0.01,,Overcast,310,2012-01-01 10:15:00
4:35 AM,39.2,33.8,81,29.67,10.0,NW,26.5,35.7,0.01,,Overcast,310,2012-01-01 10:35:00
4:55 AM,37.4,32.0,81,29.70,10.0,NW,31.1,43.7,0.01,,Overcast,310,2012-01-01 10:55:00
5:15 AM,37.4,30.2,75,29.73,10.0,NW,28.8,42.6,N/A,,Overcast,320,2012-01-01 11:15:00
5:35 AM,37.4,30.2,75,29.76,10.0,NW,29.9,41.4,N/A,,Overcast,320,2012-01-01 11:35:00
5:55 AM,37.4,30.2,75,29.79,10.0,NW,29.9,41.4,N/A,,Overcast,320,2012-01-01 11:55:00
6:15 AM,37.4,30.2,75,29.81,10.0,NW,27.6,36.8,N/A,,Overcast,320,2012-01-01 12:15:00
6:35 AM,37.4,30.2,75,29.83,10.0,NW,25.3,40.3,N/A,,Overcast,310,2012-01-01 12:35:00
6:55 AM,35.6,30.2,81,29.84,10.0,WNW,23.0,29.9,N/A,,Overcast,300,2012-01-01 12:55:00
7:15 AM,35.6,28.4,75,29.87,10.0,WNW,25.3,34.5,N/A,,Overcast,300,2012-01-01 13:15:00
7:35 AM,33.8,26.6,75,29.90,10.0,WNW,28.8,35.7,N/A,,Overcast,300,2012-01-01 13:35:00
7:55 AM,32.0,26.6,80,29.92,10.0,WNW,25.3,31.1,N/A,,Overcast,300,2012-01-01 13:55:00
8:15 AM,32.0,24.8,75,29.94,10.0,NW,25.3,35.7,N/A,,Scattered Clouds,310,2012-01-01 14:15:00
8:35 AM,32.0,24.8,75,29.96,10.0,WNW,27.6,36.8,N/A,,Clear,300,2012-01-01 14:35:00
9:15 AM,32.0,24.8,75,29.98,10.0,WNW,26.5,38.0,N/A,,Partly Cloudy,290,2012-01-01 15:15:00
9:35 AM,32.0,23.0,69,30.00,10.0,WNW,27.6,36.8,N/A,,Clear,300,2012-01-01 15:35:00
9:55 AM,33.8,23.0,65,30.01,10.0,WNW,32.2,40.3,N/A,,Clear,300,2012-01-01 15:55:00
10:15 AM,33.8,23.0,65,30.01,10.0,WNW,29.9,39.1,N/A,,Clear,300,2012-01-01 16:15:00
10:35 AM,33.8,21.2,60,30.01,10.0,WNW,28.8,42.6,N/A,,Clear,300,2012-01-01 16:35:00
10:55 AM,33.8,21.2,60,30.02,10.0,WNW,32.2,49.5,N/A,,Scattered Clouds,300,2012-01-01 16:55:00
11:15 AM,33.8,19.4,56,30.02,10.0,WNW,38.0,46.0,N/A,,Scattered Clouds,300,2012-01-01 17:15:00
11:35 AM,32.0,19.4,60,30.03,10.0,WNW,34.5,43.7,N/A,,Mostly Cloudy,300,2012-01-01 17:35:00
11:55 AM,32.0,19.4,60,30.02,10.0,WNW,32.2,40.3,N/A,,Overcast,300,2012-01-01 17:55:00
12:15 PM,32.0,19.4,60,30.02,10.0,WNW,29.9,42.6,N/A,,Overcast,300,2012-01-01 18:15:00
12:35 PM,32.0,19.4,60,30.03,10.0,WNW,35.7,43.7,N/A,,Overcast,290,2012-01-01 18:35:00
12:55 PM,32.0,19.4,60,30.04,10.0,WNW,31.1,43.7,N/A,,Overcast,300,2012-01-01 18:55:00
1:15 PM,32.0,17.6,55,30.04,10.0,WNW,32.2,42.6,N/A,,Overcast,300,2012-01-01 19:15:00
1:35 PM,32.0,17.6,55,30.05,10.0,WNW,38.0,43.7,N/A,,Overcast,290,2012-01-01 19:35:00
1:55 PM,32.0,17.6,55,30.06,10.0,WNW,28.8,42.6,N/A,,Overcast,300,2012-01-01 19:55:00
2:15 PM,33.8,17.6,52,30.07,10.0,WNW,34.5,44.9,N/A,,Overcast,300,2012-01-01 20:15:00
2:35 PM,32.0,17.6,55,30.08,10.0,WNW,29.9,42.6,N/A,,Overcast,300,2012-01-01 20:35:00
2:55 PM,32.0,17.6,55,30.09,10.0,WNW,39.1,47.2,N/A,,Overcast,300,2012-01-01 20:55:00
3:15 PM,30.2,17.6,60,30.11,10.0,WNW,36.8,44.9,N/A,,Overcast,300,2012-01-01 21:15:00
3:35 PM,30.2,17.6,60,30.13,10.0,WNW,36.8,43.7,N/A,,Overcast,300,2012-01-01 21:35:00
4:15 PM,30.2,17.6,60,30.16,10.0,WNW,35.7,44.9,N/A,,Overcast,300,2012-01-01 22:15:00
4:35 PM,30.2,17.6,60,30.16,10.0,WNW,32.2,41.4,N/A,,Overcast,290,2012-01-01 22:35:00
4:55 PM,30.2,17.6,60,30.16,10.0,WNW,32.2,40.3,N/A,,Overcast,290,2012-01-01 22:55:00
5:15 PM,30.2,17.6,60,30.17,10.0,WNW,32.2,40.3,N/A,,Overcast,290,2012-01-01 23:15:00
5:35 PM,30.2,15.8,55,30.18,10.0,WNW,34.5,44.9,N/A,,Overcast,300,2012-01-01 23:35:00
5:55 PM,30.2,17.6,60,30.19,10.0,WNW,31.1,35.7,N/A,,Overcast,300,2012-01-01 23:55:00
6:15 PM,30.2,17.6,60,30.19,10.0,WNW,33.4,42.6,N/A,,Overcast,300,2012-01-02 00:15:00
6:35 PM,30.2,17.6,60,30.20,10.0,WNW,33.4,43.7,N/A,,Overcast,300,2012-01-02 00:35:00
6:55 PM,30.2,17.6,60,30.20,10.0,WNW,28.8,35.7,N/A,,Overcast,300,2012-01-02 00:55:00
7:15 PM,30.2,17.6,60,30.21,10.0,WNW,33.4,42.6,N/A,,Overcast,300,2012-01-02 01:15:00
7:35 PM,30.2,17.6,60,30.21,10.0,WNW,35.7,41.4,N/A,,Overcast,300,2012-01-02 01:35:00
7:55 PM,28.4,17.6,64,30.21,10.0,WNW,28.8,42.6,N/A,,Overcast,300,2012-01-02 01:55:00
8:15 PM,28.4,17.6,64,30.21,10.0,WNW,33.4,42.6,N/A,,Overcast,300,2012-01-02 02:15:00
8:35 PM,28.4,15.8,59,30.21,10.0,NW,29.9,38.0,N/A,,Overcast,310,2012-01-02 02:35:00
8:55 PM,28.4,17.6,64,30.21,10.0,NW,26.5,34.5,N/A,,Overcast,310,2012-01-02 02:55:00
9:15 PM,28.4,15.8,59,30.22,10.0,NW,27.6,39.1,N/A,,Overcast,310,2012-01-02 03:15:00
9:35 PM,26.6,12.2,55,30.22,10.0,NW,31.1,43.7,N/A,,Overcast,310,2012-01-02 03:35:00
9:55 PM,26.6,12.2,55,30.22,10.0,WNW,34.5,40.3,N/A,,Overcast,300,2012-01-02 03:55:00
10:15 PM,26.6,12.2,55,30.22,10.0,WNW,25.3,36.8,N/A,,Overcast,300,2012-01-02 04:15:00
10:35 PM,26.6,14.0,59,30.22,10.0,WNW,27.6,34.5,N/A,,Overcast,300,2012-01-02 04:35:00
11:15 PM,26.6,12.2,55,30.22,10.0,NW,26.5,38.0,N/A,,Overcast,310,2012-01-02 05:15:00
11:35 PM,24.8,14.0,64,30.21,10.0,WNW,21.9,32.2,N/A,,Overcast,300,2012-01-02 05:35:00